Location: Houston
(29.7630°N, 95.3630°W)
Time: 04:33:33
(UTC-05:00)

Saudisat 1A - Visible Passes

Search period start: 28 June 2016 00:00
Search period end: 08 July 2016 00:00
Orbit: 563 x 631 km, 64.6° (Epoch: 27 June)

Date Brightness Start Highest point End Pass type
(mag) Time Alt. Az. Time Alt. Az. Time Alt. Az.
03 Jul 10.6 05:38:31 10° SSE 05:41:28 17° ESE 05:44:26 10° ENE visible
04 Jul 9.6 05:47:28 10° S 05:51:29 34° ESE 05:55:35 10° NE visible
05 Jul 8.3 05:57:12 10° SSW 06:01:36 72° ESE 06:06:07 10° NNE visible
07 Jul 10.2 04:39:55 11° SSE 04:42:55 21° ESE 04:46:16 10° ENE visible
